Location: Augsburg
(48.3836°N, 10.8929°E)
Time: 05:43:08
(UTC+02:00)

OTV 5 (USA 277) - Visible Passes

Search period start: 26 May 2018 00:00
Search period end: 05 June 2018 00:00
Orbit: 308 x 326 km, 54.5° (Epoch: 06 May)

Date Brightness Start Highest point End Pass type
(mag) Time Alt. Az. Time Alt. Az. Time Alt. Az.
01 Jun ? 04:02:04 11° S 04:03:49 18° SE 04:05:46 10° E visible
02 Jun ? 04:15:49 13° SSW 04:18:02 39° SE 04:20:39 10° ENE visible
03 Jun ? 02:58:40 12° SE 02:58:40 12° SE 02:59:34 10° ESE visible
03 Jun ? 04:29:39 10° WSW 04:32:23 89° NNW 04:35:10 10° ENE visible
04 Jun ? 03:12:19 25° SSE 03:12:39 25° SE 03:15:01 10° E visible
